DAL1678 KBZN-KMSP

Flight info

Callsign DAL1678
Flight time N/A
Altitude 37000
Route BOBKT5 BIL J16 DPR UFFDA TORGY4
Aircraft B739/M-SDE2E3FGHIRWXY/LB1

Departure

Time 2026-05-07 18:07
Airport Bozeman Yellowstone International Airport (KBZN)

Arrival

Time N/A
Airport Minneapolis–Saint Paul International Airport / Wold–Chamberlain Field (KMSP)
Time Latitude Longitude Altitude Speed Heading
2026-05-07 17:40 45.77831 -111.15965 4480 ft 0 kts 246°
2026-05-07 17:46 45.77839 -111.15941 4480 ft 4 kts 243°
2026-05-07 17:46 45.77849 -111.15912 4486 ft 4 kts 253°
2026-05-07 17:47 45.77850 -111.15877 4486 ft 4 kts 295°
2026-05-07 17:47 45.77837 -111.15850 4488 ft 1 kts 316°
2026-05-07 17:47 45.77836 -111.15850 4488 ft 1 kts 316°
2026-05-07 17:59 45.77837 -111.15850 4488 ft 1 kts 316°
2026-05-07 17:59 45.77847 -111.15865 4487 ft 4 kts 316°
2026-05-07 17:59 45.77876 -111.15904 4480 ft 8 kts 316°
2026-05-07 17:59 45.77922 -111.15968 4482 ft 10 kts 316°
2026-05-07 18:00 45.77973 -111.16039 4482 ft 10 kts 316°
2026-05-07 18:00 45.78023 -111.16108 4482 ft 10 kts 316°
2026-05-07 18:00 45.78083 -111.16142 4480 ft 10 kts
2026-05-07 18:00 45.78147 -111.16159 4480 ft 9 kts 334°
2026-05-07 18:01 45.78200 -111.16212 4482 ft 9 kts 318°
2026-05-07 18:01 45.78245 -111.16273 4480 ft 9 kts 315°
2026-05-07 18:01 45.78288 -111.16334 4480 ft 9 kts 316°
2026-05-07 18:01 45.78331 -111.16392 4481 ft 8 kts 316°
2026-05-07 18:02 45.78412 -111.16506 4483 ft 8 kts 315°
2026-05-07 18:02 45.78450 -111.16560 4480 ft 8 kts 315°
2026-05-07 18:02 45.78487 -111.16612 4483 ft 7 kts 316°
2026-05-07 18:03 45.78524 -111.16662 4480 ft 7 kts 316°
2026-05-07 18:03 45.78559 -111.16711 4480 ft 7 kts 316°
2026-05-07 18:03 45.78592 -111.16758 4482 ft 7 kts 316°
2026-05-07 18:03 45.78628 -111.16802 4480 ft 7 kts 322°
2026-05-07 18:04 45.78670 -111.16819 4480 ft 7 kts 16°
2026-05-07 18:04 45.78706 -111.16779 4480 ft 7 kts 52°
2026-05-07 18:04 45.78720 -111.16717 4480 ft 7 kts 62°
2026-05-07 18:04 45.78747 -111.16666 4481 ft 6 kts 43°
2026-05-07 18:05 45.78767 -111.16613 4486 ft 6 kts 92°
2026-05-07 18:05 45.78750 -111.16567 4482 ft 0 kts 130°
2026-05-07 18:06 45.78650 -111.16422 4485 ft 56 kts 135°
2026-05-07 18:06 45.78198 -111.15792 4484 ft 124 kts 136°
2026-05-07 18:06 45.77441 -111.14751 4527 ft 170 kts 136°
2026-05-07 18:06 45.76551 -111.13543 5032 ft 183 kts 138°
2026-05-07 18:07 45.75629 -111.12265 5734 ft 185 kts 134°
2026-05-07 18:07 45.74736 -111.10922 6423 ft 187 kts 134°
2026-05-07 18:07 45.73834 -111.09567 7066 ft 190 kts 134°
2026-05-07 18:07 45.72892 -111.08170 7545 ft 203 kts 134°
2026-05-07 18:08 45.71842 -111.06634 7728 ft 228 kts 135°
2026-05-07 18:08 45.70676 -111.04942 7994 ft 248 kts 135°
2026-05-07 18:08 45.69437 -111.03155 8491 ft 256 kts 135°
2026-05-07 18:08 45.68173 -111.01338 9035 ft 260 kts 135°
2026-05-07 18:09 45.66887 -110.99374 9212 ft 283 kts 124°
2026-05-07 18:09 45.66186 -110.96698 9673 ft 294 kts 99°
2026-05-07 18:09 45.65905 -110.93795 10439 ft 296 kts 97°
2026-05-07 18:09 45.65649 -110.90885 11160 ft 300 kts 97°
2026-05-07 18:10 45.65367 -110.87897 11708 ft 310 kts 98°
2026-05-07 18:10 45.65064 -110.84734 11887 ft 332 kts 98°
2026-05-07 18:10 45.64749 -110.81391 12306 ft 343 kts 96°
2026-05-07 18:10 45.64842 -110.77976 12906 ft 347 kts 78°
2026-05-07 18:11 45.65376 -110.74611 13658 ft 347 kts 76°
2026-05-07 18:11 45.65770 -110.72359 14181 ft 347 kts 76°
2026-05-07 18:11 45.66526 -110.67867 14940 ft 354 kts 77°
2026-05-07 18:11 45.67086 -110.64412 15524 ft 359 kts 77°
2026-05-07 18:12 45.67641 -110.60920 16143 ft 361 kts 77°
2026-05-07 18:12 45.68195 -110.57403 16763 ft 364 kts 77°
2026-05-07 18:12 45.68752 -110.53851 17350 ft 367 kts 77°
2026-05-07 18:12 45.69310 -110.50277 17918 ft 370 kts 77°
2026-05-07 18:13 45.69874 -110.46660 18466 ft 373 kts 77°
2026-05-07 18:13 45.70411 -110.43010 18982 ft 377 kts 81°
2026-05-07 18:13 45.70740 -110.39270 19525 ft 381 kts 84°
2026-05-07 18:13 45.70941 -110.35853 20061 ft 382 kts 85°
2026-05-07 18:14 45.71123 -110.32366 20552 ft 385 kts 85°
2026-05-07 18:15 45.71327 -110.28530 21024 ft 389 kts 85°
2026-05-07 18:15 45.71551 -110.24648 21526 ft 392 kts 85°
2026-05-07 18:15 45.71788 -110.20752 22016 ft 395 kts 85°
2026-05-07 18:15 45.72036 -110.16810 22473 ft 398 kts 85°
2026-05-07 18:16 45.72289 -110.12853 22936 ft 401 kts 85°
2026-05-07 18:16 45.72544 -110.08853 23371 ft 404 kts 85°
2026-05-07 18:16 45.72799 -110.04838 23790 ft 407 kts 85°
2026-05-07 18:16 45.73054 -110.00782 24220 ft 409 kts 85°
2026-05-07 18:17 45.73308 -109.96717 24661 ft 412 kts 85°
2026-05-07 18:17 45.73558 -109.92679 25056 ft 415 kts 85°
2026-05-07 18:17 45.73811 -109.88555 25468 ft 417 kts 85°
2026-05-07 18:17 45.74065 -109.84409 25881 ft 419 kts 85°
2026-05-07 18:18 45.74318 -109.80244 26270 ft 421 kts 85°
2026-05-07 18:18 45.74572 -109.76056 26690 ft 422 kts 85°
2026-05-07 18:18 45.74823 -109.71877 27203 ft 421 kts 85°
2026-05-07 18:18 45.75071 -109.67714 27731 ft 419 kts 85°
2026-05-07 18:19 45.75312 -109.63654 28194 ft 418 kts 85°
2026-05-07 18:19 45.75558 -109.59510 28618 ft 419 kts 85°
2026-05-07 18:19 45.75802 -109.55348 29053 ft 418 kts 85°
2026-05-07 18:19 45.76043 -109.51213 29544 ft 416 kts 85°
2026-05-07 18:20 45.76279 -109.47117 30007 ft 415 kts 85°
2026-05-07 18:20 45.76516 -109.42998 30405 ft 415 kts 85°
2026-05-07 18:20 45.76751 -109.38890 30770 ft 415 kts 85°
2026-05-07 18:20 45.76985 -109.34768 31145 ft 415 kts 85°
2026-05-07 18:21 45.77217 -109.30662 31550 ft 413 kts 85°
2026-05-07 18:21 45.77445 -109.26608 31910 ft 413 kts 85°
2026-05-07 18:21 45.77673 -109.22516 32246 ft 412 kts 85°
2026-05-07 18:21 45.77902 -109.18416 32550 ft 412 kts 85°
2026-05-07 18:22 45.78127 -109.14323 32859 ft 412 kts 85°
2026-05-07 18:22 45.78278 -109.11560 33107 ft 411 kts 85°
2026-05-07 18:22 45.78574 -109.06165 33550 ft 409 kts 85°
2026-05-07 18:22 45.78797 -109.02107 33816 ft 409 kts 85°
2026-05-07 18:23 45.79019 -108.98046 34081 ft 409 kts 85°
2026-05-07 18:23 45.79238 -108.93996 34375 ft 408 kts 85°
2026-05-07 18:23 45.79457 -108.89948 34649 ft 407 kts 85°
2026-05-07 18:23 45.79674 -108.85906 34887 ft 406 kts 85°
2026-05-07 18:24 45.79890 -108.81874 35119 ft 406 kts 85°
2026-05-07 18:24 45.80103 -108.77835 35340 ft 406 kts 85°
2026-05-07 18:24 45.80314 -108.73802 35532 ft 406 kts 85°
2026-05-07 18:24 45.80525 -108.69773 35780 ft 405 kts 85°
2026-05-07 18:25 45.80733 -108.65764 36015 ft 403 kts 85°
2026-05-07 18:25 45.80905 -108.61753 36178 ft 404 kts 91°
2026-05-07 18:25 45.80748 -108.57724 36275 ft 406 kts 95°
2026-05-07 18:26 45.80083 -108.49612 36354 ft 414 kts 97°
2026-05-07 18:26 45.79717 -108.45520 36578 ft 411 kts 97°
2026-05-07 18:26 45.79591 -108.44086 36766 ft 407 kts 97°